Orbital Elements at Epoch 2459200.5 (2020-Dec-17.0) TDB
Reference: JPL 12 (heliocentric ecliptic J2000)
Element | Value | Uncertainty (1-sigma) | Units |
e | .1931799922876126 | 7.3322e-08 | |
a | 3.1468854717504 | 3.8783e-08 | au |
q | 2.538970160587658 | 2.2647e-07 | au |
i | 15.61354370952974 | 8.4401e-06 | deg |
node | 324.615654597937 | 2.4018e-05 | deg |
peri | 39.95166581243841 | 3.1281e-05 | deg |
M | 234.7009238690387 | 2.4368e-05 | deg |
tp | 2459910.184305552953 (2022-Nov-26.68430555) | 0.00014751 | TDB |
period | 2039.01224085668 5.58 | 3.7694e-05 1.032e-07 | d yr |
n | .176556075920735 | 3.2639e-09 | deg/d |
Q | 3.754800782913142 | 4.6275e-08 | au |
|
| | Orbit Determination Parameters
Additional Information
|